<?xml version="1.0" encoding="UTF-8" standalone="no" ?>
<gpx xmlns="http://www.topografix.com/GPX/1/1" xmlns:xsi="http://www.w3.org/2001/XMLSchema-instance" xsi:schemaLocation="http://www.topografix.com/GPX/1/1 http://www.topografix.com/GPX/1/1/gpx.xsd" version="1.1" creator="VisuGPX - https://www.visugpx.com">
  <metadata>
    <name>Rando autour d\'Audrieu</name>
    <desc><![CDATA[petite randonnée du Dimanche 16/11/2014 entre amis, temps variable]]></desc>
  </metadata>
  <trk>
    <name><![CDATA[Tracé actuel: 09 NOV 2014 17:11]]></name>
    <trkseg>
      <trkpt lat="49.03872" lon="-0.42181">
        <ele>117.9</ele>
        <time>2014-11-09T16:11:43Z</time>
      </trkpt>
      <trkpt lat="49.03872" lon="-0.4218">
        <ele>115.98</ele>
        <time>2014-11-09T16:12:00Z</time>
      </trkpt>
      <trkpt lat="49.03871" lon="-0.4218">
        <ele>119.34</ele>
        <time>2014-11-09T16:12:01Z</time>
      </trkpt>
      <trkpt lat="49.0387" lon="-0.42178">
        <ele>117.9</ele>
        <time>2014-11-09T16:12:24Z</time>
      </trkpt>
      <trkpt lat="49.0387" lon="-0.42178">
        <ele>116.94</ele>
        <time>2014-11-09T16:12:32Z</time>
      </trkpt>
      <trkpt lat="49.03868" lon="-0.42216">
        <ele>115.98</ele>
        <time>2014-11-09T16:44:24Z</time>
      </trkpt>
      <trkpt lat="49.03866" lon="-0.42217">
        <ele>115.98</ele>
        <time>2014-11-09T16:44:25Z</time>
      </trkpt>
      <trkpt lat="49.03858" lon="-0.42215">
        <ele>115.98</ele>
        <time>2014-11-09T16:44:47Z</time>
      </trkpt>
      <trkpt lat="49.03861" lon="-0.42205">
        <ele>117.42</ele>
        <time>2014-11-09T16:44:59Z</time>
      </trkpt>
      <trkpt lat="49.03856" lon="-0.42205">
        <ele>121.26</ele>
        <time>2014-11-09T16:45:05Z</time>
      </trkpt>
      <trkpt lat="49.03856" lon="-0.42208">
        <ele>122.71</ele>
        <time>2014-11-09T16:45:09Z</time>
      </trkpt>
      <trkpt lat="49.03859" lon="-0.42211">
        <ele>125.11</ele>
        <time>2014-11-09T16:45:14Z</time>
      </trkpt>
      <trkpt lat="49.03861" lon="-0.42215">
        <ele>128.47</ele>
        <time>2014-11-09T16:45:24Z</time>
      </trkpt>
      <trkpt lat="49.03864" lon="-0.42215">
        <ele>131.84</ele>
        <time>2014-11-09T16:45:35Z</time>
      </trkpt>
      <trkpt lat="49.03867" lon="-0.42213">
        <ele>135.2</ele>
        <time>2014-11-09T16:45:43Z</time>
      </trkpt>
      <trkpt lat="49.03874" lon="-0.42214">
        <ele>138.57</ele>
        <time>2014-11-09T16:46:00Z</time>
      </trkpt>
      <trkpt lat="49.03876" lon="-0.42209">
        <ele>141.93</ele>
        <time>2014-11-09T16:46:17Z</time>
      </trkpt>
      <trkpt lat="49.03876" lon="-0.42208">
        <ele>141.93</ele>
        <time>2014-11-09T16:46:41Z</time>
      </trkpt>
      <trkpt lat="49.03872" lon="-0.42208">
        <ele>141.45</ele>
        <time>2014-11-09T16:47:02Z</time>
      </trkpt>
      <trkpt lat="49.03863" lon="-0.42205">
        <ele>141.93</ele>
        <time>2014-11-09T16:47:23Z</time>
      </trkpt>
      <trkpt lat="49.03864" lon="-0.42204">
        <ele>141.93</ele>
        <time>2014-11-09T16:47:36Z</time>
      </trkpt>
      <trkpt lat="49.03863" lon="-0.42204">
        <ele>141.45</ele>
        <time>2014-11-09T16:47:55Z</time>
      </trkpt>
      <trkpt lat="49.03863" lon="-0.42202">
        <ele>141.45</ele>
        <time>2014-11-09T16:48:14Z</time>
      </trkpt>
      <trkpt lat="49.03863" lon="-0.422">
        <ele>141.45</ele>
        <time>2014-11-09T16:48:29Z</time>
      </trkpt>
      <trkpt lat="49.03862" lon="-0.42199">
        <ele>141.45</ele>
        <time>2014-11-09T16:48:48Z</time>
      </trkpt>
      <trkpt lat="49.03862" lon="-0.42199">
        <ele>141.45</ele>
        <time>2014-11-09T16:49:05Z</time>
      </trkpt>
      <trkpt lat="49.03862" lon="-0.422">
        <ele>140.49</ele>
        <time>2014-11-09T16:49:15Z</time>
      </trkpt>
      <trkpt lat="49.03862" lon="-0.42199">
        <ele>140.97</ele>
        <time>2014-11-09T16:49:44Z</time>
      </trkpt>
      <trkpt lat="49.03862" lon="-0.42198">
        <ele>140.97</ele>
        <time>2014-11-09T16:50:12Z</time>
      </trkpt>
      <trkpt lat="49.03862" lon="-0.42198">
        <ele>140.97</ele>
        <time>2014-11-09T16:50:45Z</time>
      </trkpt>
      <trkpt lat="49.03862" lon="-0.42199">
        <ele>140.97</ele>
        <time>2014-11-09T16:51:13Z</time>
      </trkpt>
      <trkpt lat="49.03862" lon="-0.42198">
        <ele>140.97</ele>
        <time>2014-11-09T16:51:36Z</time>
      </trkpt>
      <trkpt lat="49.03862" lon="-0.42197">
        <ele>140.49</ele>
        <time>2014-11-09T16:52:08Z</time>
      </trkpt>
      <trkpt lat="49.03863" lon="-0.42193">
        <ele>141.45</ele>
        <time>2014-11-09T16:52:29Z</time>
      </trkpt>
    </trkseg>
  </trk>
</gpx>